SCP
1 1 0 0 0 0 0 0 0 0 0 0 0 0 0 0 0 0 0 0 0 0 0 0 0 0 0 0 0 0 0 0 0 0 0 0 0 0 0 0 0 0 0
1 1 0 0 0 0 0 0 0 0 0 0 0 0 0 0 0 0 0 0 0 0 0 0 0 0 0 0 0 0 0 0 0 0 0 0 0 0 0 0 0 0 0
1 1 1 0 0 0 0 0 0 0 0 0 0 0 0 0 0 0 0 0 0 0 0 0 0 0 0 0 0 0 0 0 0 0 0 0 0 0 0 0 0 0 0
0 0 1 1 1 1 1 0 0 0 0 0 0 0 0 0 0 0 0 0 0 0 0 0 0 0 0 0 0 0 0 0 0 0 0 0 0 0 0 0 0 0 0
0 0 1 1 1 1 1 0 0 0 0 0 0 0 0 0 0 0 0 0 0 0 0 0 0 0 0 0 0 0 0 0 0 0 0 0 0 0 0 0 0 0 0
0 0 1 1 1 1 1 1 0 0 0 0 0 0 0 0 0 0 0 0 0 0 0 0 0 0 0 0 0 0 0 0 0 0 0 0 0 0 0 0 0 0 0
0 1 1 1 1 1 1 0 0 0 0 0 0 0 0 0 0 0 0 0 0 0 0 0 0 0 0 0 0 0 0 0 0 0 0 0 0 0 0 0 0 0 0
1 1 1 1 1 1 1 0 0 0 0 0 0 0 0 0 0 0 0 0 0 0 0 0 0 0 0 0 0 0 0 0 0 0 0 0 0 0 0 0 0 0 0
0 1 1 1 1 1 1 1 0 0 0 0 0 0 0 0 0 0 0 0 0 0 0 0 0 0 0 0 0 0 0 0 0 0 0 0 0 0 0 0 0 0 0
0 1 1 1 1 1 1 1 1 0 0 0 0 0 0 0 0 0 0 0 0 0 0 0 0 0 0 0 0 0 0 0 0 0 0 0 0 0 0 0 0 0 0
0 1 1 1 1 1 1 1 1 0 0 0 0 0 0 0 0 0 0 0 0 0 0 0 0 0 0 0 0 0 0 0 0 0 0 0 0 0 0 0 0 0 0
0 1 1 1 1 1 1 1 1 1 0 0 0 0 0 0 0 0 0 0 0 0 0 0 0 0 0 0 0 0 0 0 0 0 0 0 0 0 0 0 0 0 0
0 0 1 1 1 1 1 1 1 1 0 0 0 0 0 0 0 0 0 0 0 0 0 0 0 0 0 0 0 0 0 0 0 0 0 0 0 0 0 0 0 0 0
0 0 0 1 1 1 1 1 1 1 1 0 0 0 0 0 0 0 0 0 0 0 0 0 0 0 0 0 0 0 0 0 0 0 0 0 0 0 0 0 0 0 0
0 0 0 1 1 2 1 1 1 1 1 0 0 0 0 0 0 0 0 0 0 0 0 0 0 0 0 0 0 0 0 0 0 0 0 0 0 0 0 0 0 0 0
0 0 1 1 2 2 2 1 1 1 1 1 1 0 0 0 0 0 0 0 0 0 0 0 0 0 0 0 0 0 0 0 0 0 0 0 0 0 0 0 0 0 0
0 0 1 1 2 2 2 1 1 1 1 1 1 1 0 0 0 0 0 0 0 0 0 0 0 0 0 0 0 0 0 0 0 0 0 0 0 0 0 0 0 0 0
0 0 1 2 2 2 2 1 1 2 2 2 2 1 1 0 0 0 0 0 0 0 0 0 0 0 0 0 0 0 0 0 0 0 0 0 0 0 0 0 0 0 0
0 0 1 2 2 2 1 1 1 2 2 2 2 2 1 0 0 0 0 0 0 0 0 0 0 0 0 0 0 0 0 0 0 0 0 0 0 0 0 0 0 0 0
0 0 1 1 2 1 1 0 1 1 2 2 2 2 1 0 0 0 0 0 0 0 0 0 0 0 0 0 0 0 0 0 0 0 0 0 0 0 0 0 0 0 0
0 0 0 1 1 0 0 0 0 1 2 2 2 2 1 1 0 0 0 0 0 0 0 0 0 0 0 0 0 0 0 0 0 0 0 0 0 0 0 0 0 0 0
0 0 0 0 0 0 0 0 0 0 1 1 2 2 1 1 0 0 0 0 0 0 0 0 0 0 0 0 0 0 0 0 0 0 0 0 0 0 0 0 0 0 0
0 0 0 0 0 0 0 0 0 0 0 1 1 1 1 1 0 0 0 0 0 0 0 0 0 0 0 0 0 0 0 0 0 0 0 0 0 0 0 0 0 0 0
0 0 0 0 0 0 0 0 0 0 0 0 0 1 1 1 0 0 0 0 0 0 0 0 0 0 0 0 0 0 0 0 0 0 0 0 0 0 0 0 0 0 0
0 0 0 0 0 0 0 0 0 0 0 0 0 0 1 1 1 0 0 0 0 0 0 0 0 0 0 0 0 0 0 0 0 0 0 0 0 0 0 0 0 0 0
0 0 0 0 0 0 0 0 0 0 0 0 0 0 1 1 1 0 0 0 0 0 0 0 0 0 0 0 0 0 0 0 0 0 0 0 0 0 0 0 0 0 0
Wind_Speed
4 3 4 5 5 4 4 4 4 3 3 3 3 2 1 1 2 2 3 3 3 4 4 3 3 3 3 3 3 3 5 4 2 4 4 4 5 6 5 5 5 6 6
4 4 5 5 6 5 5 4 4 4 3 3 2 2 2 2 1 2 3 4 4 3 3 4 3 3 3 4 3 3 3 2 3 2 3 3 4 5 6 5 5 6 5
8 6 6 7 6 7 6 5 4 4 3 4 3 3 3 3 2 2 2 3 3 3 3 3 3 3 3 3 2 2 3 2 2 2 3 3 1 1 3 5 5 6 5
7 7 7 7 8 7 6 5 5 4 4 4 4 5 3 2 1 1 1 2 3 4 4 3 4 3 3 3 2 2 2 3 2 2 3 2 3 3 1 3 4 5 6
8 8 9 8 7 6 6 5 5 4 4 4 5 5 3 2 1 2 3 3 3 3 4 4 4 3 3 3 3 3 3 2 2 2 1 3 3 3 3 1 2 3 4
8 7 6 6 6 5 5 5 5 4 4 5 5 6 6 4 4 3 2 2 2 2 3 3 3 3 3 3 3 3 4 3 3 3 2 2 2 1 2 2 0 1 3
8 8 8 8 8 7 7 6 6 5 4 5 5 6 6 6 5 4 3 2 1 1 1 2 2 2 2 3 3 4 3 3 3 3 2 2 2 2 2 3 2 1 2
8 9 9 9 9 9 8 7 7 5 5 5 5 4 5 4 3 3 3 3 2 2 2 2 3 3 3 3 4 3 3 3 3 4 3 2 2 2 2 3 3 2 2
9 9 9 9 9 9 8 8 7 6 6 5 5 5 5 4 4 3 3 2 2 2 3 3 3 3 3 4 4 3 3 3 3 3 3 3 2 2 2 2 2 4 2
8 8 8 9 8 8 7 7 7 7 6 6 5 5 4 4 4 4 4 3 3 3 4 3 3 3 3 4 4 3 3 4 3 2 4 3 2 2 2 2 2 2 3
9 8 8 8 7 7 7 7 6 5 5 5 4 5 4 4 4 4 4 4 3 3 4 3 4 3 3 3 4 3 3 4 3 3 3 3 2 2 2 2 3 2 3
7 7 7 7 7 7 7 7 7 6 6 5 5 5 4 4 4 4 4 4 4 3 3 4 4 4 3 3 4 4 3 3 3 2 3 2 2 3 2 2 3 2 2
5 6 6 8 8 8 8 7 7 6 5 5 6 5 5 5 5 4 4 4 4 4 3 4 4 4 4 4 3 4 3 3 2 2 2 2 3 3 2 2 2 2 2
6 7 7 8 8 8 8 8 7 6 6 6 6 6 6 5 5 4 4 4 4 4 4 4 4 4 4 4 4 4 4 3 2 2 2 2 3 3 3 2 2 2 3
6 8 8 8 8 7 7 7 7 6 7 7 6 6 5 4 4 4 4 4 4 4 4 4 4 3 3 4 4 4 4 3 3 2 2 2 3 4 3 3 2 3 3
8 9 8 8 9 9 8 8 7 7 7 8 7 5 5 5 5 5 4 4 4 4 4 4 4 4 3 6 7 6 4 3 3 2 2 2 2 3 4 5 5 5 4
8 9 9 9 9 9 9 9 8 8 7 7 6 6 6 6 5 5 5 5 4 4 4 4 4 3 3 6 7 7 4 4 3 3 2 2 3 3 3 4 4 3 3
7 8 8 8 7 7 7 7 7 8 8 7 7 7 7 6 5 5 5 4 4 4 4 4 4 3 4 6 7 7 5 3 3 2 2 2 1 2 3 3 3 2 1
6 7 8 7 8 8 8 8 8 7 7 7 7 7 8 7 6 6 5 4 4 4 3 3 4 4 4 6 7 7 4 3 2 2 2 3 2 4 5 4 2 1 1
4 4 5 5 6 7 8 9 8 8 9 9 8 8 8 8 8 7 5 4 4 4 4 3 3 4 3 5 7 7 3 3 2 1 1 3 3 4 5 4 3 2 1
3 5 6 6 6 7 9 9 8 9 8 7 7 7 7 7 7 6 5 5 4 4 4 3 2 2 3 4 6 7 4 4 3 2 1 2 4 4 4 4 3 3 2
3 5 6 5 5 7 9 8 8 7 6 7 7 7 7 7 7 7 6 5 6 5 4 3 1 1 1 2 4 6 6 6 4 3 2 2 4 4 3 2 2 2 1
4 5 6 6 5 6 7 8 6 6 7 8 7 7 6 5 6 7 7 6 5 4 4 3 3 2 1 2 4 5 6 6 3 2 4 4 3 3 2 2 2 2 1
4 5 6 6 5 5 5 5 6 7 8 8 7 6 7 5 5 5 5 5 5 5 4 4 4 2 1 2 2 2 2 4 3 1 2 3 3 2 1 1 0 0 1
3 5 6 6 6 5 5 5 6 8 8 7 6 6 6 6 5 4 4 5 5 7 7 5 5 5 4 5 7 5 4 4 4 3 2 1 1 1 0 0 0 0 0
4 4 5 5 5 6 5 6 7 8 8 7 6 5 5 5 4 4 2 1 2 5 7 6 6 4 6 6 8 8 7 7 7 5 2 2 2 2 2 2 1 1 1
Wind_Direction
208 188 172 157 148 144 141 144 137 135 124 104 98 91 71 37 37 40 44 54 60 66 71 71 59 60 75 77 81 83 75 60 60 79 60 39 41 45 35 31 37 36 37
192 188 174 168 167 165 162 157 153 148 142 127 123 119 115 87 63 38 46 45 56 60 75 77 74 68 79 73 70 82 86 57 38 90 90 44 14 18 26 29 36 30 30
197 194 188 185 173 175 177 174 169 157 148 134 111 87 67 54 42 34 35 29 50 61 70 78 79 71 80 89 79 88 104 104 42 53 116 123 153 357 2 22 30 27 31
198 192 190 189 187 186 177 170 166 160 155 144 137 133 132 129 148 108 69 49 53 61 64 73 75 74 73 81 79 76 87 109 92 50 49 91 138 129 41 356 10 24 32
197 195 195 193 189 180 171 168 161 159 160 155 150 139 132 135 117 89 81 63 49 53 61 68 72 71 69 73 74 74 74 85 105 98 83 70 63 81 120 73 349 8 13
196 194 188 177 179 174 168 165 161 165 162 157 154 153 152 147 129 116 107 82 55 44 52 72 73 74 71 70 74 78 80 78 86 86 87 107 108 115 117 130 80 7 345
188 184 179 178 179 179 177 172 166 171 171 161 163 165 164 158 155 153 146 132 103 69 55 77 82 80 78 77 75 75 71 74 83 85 81 84 95 128 126 122 122 58 349
188 188 187 184 183 183 179 173 173 176 175 169 171 167 164 159 161 161 153 150 150 151 131 113 98 91 87 84 77 72 67 70 75 75 75 74 63 85 114 134 133 92 20
190 190 187 184 183 182 182 176 175 179 180 174 167 165 166 163 161 158 147 144 144 135 123 116 106 94 90 90 88 76 66 72 68 71 73 70 52 59 71 100 125 133 116
191 189 187 186 185 182 175 168 172 181 177 170 171 167 170 169 162 151 150 149 141 126 124 117 111 102 95 94 92 80 71 77 63 69 76 67 52 57 61 75 77 102 133
193 191 190 184 176 169 168 170 175 173 169 169 164 155 162 157 150 152 159 155 143 138 135 133 125 116 108 104 101 95 88 84 70 65 80 71 66 69 59 66 74 74 102
193 189 181 169 168 170 171 173 177 179 175 167 159 159 156 151 151 159 163 152 146 143 139 133 126 125 119 115 116 116 105 105 99 84 82 71 80 73 65 76 78 78 87
184 176 172 172 176 177 176 176 179 181 170 159 156 155 157 160 164 167 161 153 149 142 135 133 135 134 132 126 124 121 114 112 112 109 111 108 99 87 76 79 79 72 74
184 178 180 181 180 179 177 176 179 175 165 157 157 163 171 172 168 160 153 153 152 149 145 141 139 137 134 131 129 123 120 115 103 99 110 115 124 128 117 97 95 94 85
188 185 186 184 179 177 176 173 174 171 165 160 164 173 166 157 150 147 147 145 147 151 146 135 131 130 136 147 145 140 136 130 111 83 81 102 116 119 119 117 127 117 106
199 192 187 183 182 181 178 172 172 170 165 166 171 163 153 150 150 150 146 142 141 139 136 138 142 147 157 155 156 149 138 133 129 117 83 76 75 87 97 108 117 127 132
202 191 188 189 189 185 179 177 174 163 163 166 163 159 159 155 156 152 145 150 150 141 138 144 145 153 162 158 154 153 139 137 138 137 124 104 94 89 89 84 78 80 107
201 194 187 187 186 176 172 165 157 159 163 163 161 161 160 155 149 147 151 152 144 146 149 151 154 152 167 161 151 146 137 130 134 145 152 145 137 126 123 108 84 64 50
200 194 185 181 174 171 167 155 157 160 162 168 169 168 162 155 152 157 159 153 146 150 153 154 158 161 175 167 157 144 135 135 150 166 162 160 166 155 134 120 113 55 339
184 172 156 150 162 168 159 156 164 167 177 180 175 167 162 160 164 166 158 150 151 154 147 146 162 167 176 172 165 154 143 148 162 165 173 180 179 169 150 146 150 165 262
157 144 144 156 168 162 159 164 170 184 185 170 158 156 160 162 161 155 149 146 144 135 136 140 147 167 181 180 174 169 163 171 171 177 202 211 186 175 167 160 170 190 184
137 143 148 155 156 157 160 167 182 183 160 151 151 155 157 160 155 149 151 148 142 137 140 137 135 182 197 178 181 178 177 170 166 186 198 190 169 170 167 162 160 157 122
153 151 151 149 153 163 166 173 180 158 149 148 154 155 154 157 153 155 155 149 150 152 158 161 174 200 197 189 184 178 174 167 164 179 169 158 151 152 160 158 147 131 120
157 152 146 149 161 171 172 170 155 149 147 152 155 152 151 152 151 154 158 159 164 166 169 177 187 191 182 192 188 177 170 165 163 161 146 138 119 109 116 111 112 162 182
154 153 158 166 171 167 163 153 149 148 148 152 153 151 151 154 154 155 167 172 185 183 181 191 184 179 198 210 187 172 175 174 170 143 108 92 100 111 280 295 274 239 168
149 150 158 163 165 162 162 159 155 154 150 151 157 156 155 155 155 151 132 121 169 179 185 181 175 191 197 183 180 181 179 171 158 138 147 178 191 202 216 230 248 239 235